Grizzly Air Cargo 5137


PASC
Deadhorse Airport
Deadhorse, Alaska, US
PANC
Ted Stevens Anchorage International Airport
Anchorage, Alaska, US

Activity Log

Date Flight Route Aircraft Duration
12/22/2019 GRZ5137 SCC J115 CQR J155 ENN V436 TKA B722 1h 42m
10/08/2019 GRZ537 CQR PUYVO KROTO4 B722 1h 16m
09/20/2019 GRZ537 CQR PUYVO KROTO4 B722 1h 25m
09/10/2019 GRZ537 CQR PUYVO KROTO4 B722 1h 25m
06/27/2019 GRZ537 CQR PUYVO KROTO4 B722 1h 33m

Route Details

Aircraft Information
Primary: Boeing 727-200F
Backup: Boeing 737-800BCF
Route Data
Distance: 638nm
Sched. Duration: 1h 35m
Avg. Duration: 1h 28m (-6m)
Times Flown: 5
Recm'd Route: CQR PUYVO KROTO4
Planned Altitude: 39,000ft
Origin Wx: PASC 291253Z 22006KT 10SM OVC037 M12/M13 A3006 RMK AO2 SNB1154E02 SLP182 P0000 T11171133
Dest. Wx: PANC 291253Z 09003KT 6SM BR OVC005 M04/M06 A3000 RMK AO2 SLP163 T10441061
Notes:

Financial History
Total Freight: 163,004lbs
Average Load: 32,601lbs/flt
Fuel Used: 66,552lbs
Avg. Fuel Used: 13,310lbs/flt
Fuel Expense: $52,576
Avg. Fuel Expense: $10,515
Avg. Fuel Cost: $0.79/lbs
Total Gross Income: $290,012
Pilot Pay: $985
Total Expenses: $31,581
Total Revenue: $204,330
Average Revenue: $58,002.45